OpenBCM V1.13 (Linux)

Packet Radio Mailbox

DB0FHN

[JN59NK Nuernberg]

 Login: GUEST





  
I0OJJ  > KEPS     20.03.25 03:03l 328 Lines 15599 Bytes #999 (0) @ AMSAT
BID : ORB25079.1
Read: DJ6UX GUEST
Subj: 2Line Orbital Elements 25079.AMSAT
Path: DB0FHN<DB0FFL<OE5XBL<OE6XPE<DB0ERF<IZ3LSV<I0OJJ
Sent: 250320/0025z @:I0OJJ.ITA.EU [Rome] obcm1.08-6-g5b69
From: I0OJJ @ I0OJJ.ITA.EU (Gustavo)
To:   KEPS @ AMSAT
X-Info: This message was generated automatically


QST de W1STR

AMSAT Orbital Elements for Amateur Satellites in TLE Format
From Orbital Analysis Office
New England Sci-Tech STEM Education Center
Natick, MA March 20, 2025
To all radio amateurs


These element sets describe the orbits of various satellites 
in use by the amateur radio community. For details see:
www.amsat.org/keplerian-elements-formats/

A daily update of element sets is available at:
www.amsat.org/tle/daily-bulletin.txt
or without bulletin text:
www.amsat.org/tle/dailytle.txt


AO-07
1 07530U 74089B   25078.54516712 -.00000035  00000-0  72648-4 0  9996
2 07530 101.9956  81.9311 0011886 278.9738 195.8947 12.53687270303784
UO-11
1 14781U 84021B   25078.42676802  .00004344  00000-0  46798-3 0  9995
2 14781  97.7457  46.4869 0006217 243.1666 116.8916 14.88942076189417
AO-27
1 22825U 93061C   25078.60751564  .00000428  00000-0  18072-3 0  9999
2 22825  98.7467 139.7199 0008256   1.0650 359.0548 14.30753043641997
FO-29
1 24278U 96046B   25078.23988211  .00000044  00000-0  80553-4 0  9997
2 24278  98.5842 342.9412 0349669 195.7372 163.2676 13.53240822411633
NOAA-15
1 25338U 98030A   25078.84186273  .00000537  00000-0  23872-3 0  9992
2 25338  98.5447 105.9084 0009335 234.3509 125.6803 14.26914291396746
GO-32
1 25397U 98043D   25078.50013732  .00000407  00000-0  19624-3 0  9999
2 25397  98.9634  55.9397 0002359  86.4426 273.7022 14.24275726386600
ISS
1 25544U 98067A   25078.83772769  .00026074  00000-0  46888-3 0  9997
2 25544  51.6371  29.5667 0004291  26.3916  64.8029 15.49655987501300
NO-44
1 26931U 01043C   25078.14401728  .00000695  00000-0  29153-3 0  9991
2 26931  67.0528 340.9711 0005653 267.2406  92.8049 14.31660901225307
SO-50
1 27607U 02058C   25078.46749806  .00004545  00000-0  58991-3 0  9996
2 27607  64.5530  93.9308 0046869 354.0124   6.0415 14.81167452197069
CO-55
1 27844U 03031E   25078.53790467  .00001217  00000-0  55008-3 0  9997
2 27844  98.6795  87.8630 0010794  68.6965 291.5365 14.23882169126996
CO-57
1 27848U 03031J   25078.44834221  .00000978  00000-0  45127-3 0  9992
2 27848  98.6822  87.8414 0010773  84.0748 276.1657 14.23232756126689
RS-22
1 27939U 03042A   25078.85380942  .00004302  00000-0  69341-3 0  9995
2 27939  98.3197 246.3784 0010504 268.0721 228.5220 14.71971475148807
NOAA-18
1 28654U 05018A   25078.79851434  .00000575  00000-0  32844-3 0  9993
2 28654  98.8457 159.1876 0013990   6.1540 353.9802 14.13547498 22193
CO-58
1 28895U 05043F   25078.33757851  .00006225  00000-0  10334-2 0  9993
2 28895  98.2354 221.7458 0014634 204.0846 155.9677 14.70462517 34853
CO-65
1 32785U 08021C   25078.83145184  .00016339  00000-0  12152-2 0  9997
2 32785  97.7790  49.5038 0012698 119.6853 240.5638 15.02988520916862
AAUSAT2
1 32788U 08021F   25078.74309137  .00238525  00000-0  31727-2 0  9992
2 32788  97.6067  72.3699 0004331 120.1512 240.0173 15.57350184920629
CO-66
1 32791U 08021J   25078.47273338  .00036285  00000-0  19101-2 0  9990
2 32791  97.7234  56.8789 0007191  90.9140 269.2916 15.15508739918120
RS-30
1 32953U 08025A   25078.87650169  .00000031  00000-0  14979-3 0  9998
2 32953  82.4977 278.0048 0018896 222.3066 137.6557 12.43160320763386
NOAA-19
1 33591U 09005A   25078.86236933  .00000498  00000-0  28954-3 0  9999
2 33591  99.0062 143.0812 0013094 231.5670 128.4327 14.13314143830563
SRMSAT
1 37841U 11058D   25077.05146190  .00000733  00000-0  25473-3 0  9992
2 37841  19.9726 300.0053 0011718 225.9667 295.4688 14.11386438693295
ZACUBE-1
1 39417U 13066B   25078.85906847  .00017154  00000-0  15273-2 0  9997
2 39417  97.7714  36.4145 0044351 327.4529  32.3959 14.95349959612696
Delfi-N3xt
1 39428U 13066N   25078.36701954  .00018252  00000-0  19279-2 0  9997
2 39428  97.8357 357.0316 0085530 271.2860  87.8559 14.86594430606850
GOMX-1
1 39430U 13066Q   25078.86607538  .00006238  00000-0  97524-3 0  9999
2 39430  97.6950 302.5160 0135082  93.8610 267.8052 14.67110030603428
LO-74
1 39440U 13066AA  25078.38398169  .00012421  00000-0  12822-2 0  9992
2 39440  97.8425  23.6102 0065651  91.0478 269.8261 14.88698890609205
AO-73
1 39444U 13066AE  25078.44725795  .00020381  00000-0  15980-2 0  9994
2 39444  97.7620  40.2351 0039626 305.9510  53.8040 15.00367699611263
DTUSAT-2
1 40030U 14033W   25078.84871245  .00022767  00000-0  15449-2 0  9998
2 40030  98.0486  46.8527 0009071 351.2467   8.8599 15.06391253584596
EO-80
1 40032U 14033Y   25078.40815601  .00018229  00000-0  12370-2 0  9994
2 40032  98.0360  46.1610 0006526 282.9108  77.1389 15.06458157583995
LILACSAT-2
1 40908U 15049K   25078.87923597  .00027543  00000-0  78038-3 0  9992
2 40908  97.5145  97.3638 0011996  94.6547 265.6066 15.36163265525675
IO-86
1 40931U 15052B   25038.81889873  .00001817  00000-0  15548-3 0  9993
2 40931   6.0001 108.1159 0012838 187.7041 172.2889 14.78568669506492
Horyu-4
1 41340U 16012D   25078.01043656  .00045023  00000-0  14156-2 0  9992
2 41340  30.9977 325.3629 0008490 290.6597  69.3137 15.31714786500094
Lapan A3
1 41603U 16040E   25078.85176875  .00008725  00000-0  31211-3 0  9997
2 41603  97.1404  86.7011 0010747 190.6841 169.4173 15.28965296485294
CAS-2T
1 41847U 16066G   25078.25736972  .00003756  00000-0  53973-3 0  9997
2 41847  98.4251 153.4288 0348307  67.6019 296.1681 14.43169505439142
CAS-4B
1 42759U 17034B   25078.46349226  .00080134  00000-0  13084-2 0  9994
2 42759  43.0099  87.2812 0015961  75.6986 284.5646 15.51480223429792
CAS-4A
1 42761U 17034D   25078.86777735  .00088655  00000-0  14074-2 0  9997
2 42761  43.0138  82.7152 0017294  84.4830 275.8003 15.52195702429878
TechnoSat
1 42829U 17042E   25078.46767231  .00009361  00000-0  73974-3 0  9999
2 42829  97.3909 251.1203 0012756 195.5004 164.5832 15.00805646418404
AO-91
1 43017U 17073E   25078.68808133  .00021854  00000-0  11465-2 0  9991
2 43017  97.5393 311.5738 0180917  85.3198 276.8663 15.02643493396903
S-Net D
1 43186U 18014G   25078.72902308  .00015530  00000-0  94446-3 0  9993
2 43186  97.5693 342.5078 0010559 136.8841 223.3218 15.10487828390011
S-Net B
1 43187U 18014H   25078.26969231  .00013385  00000-0  81540-3 0  9998
2 43187  97.5699 342.0213 0011263 135.1188 225.0954 15.10453112389948
S-Net A
1 43188U 18014J   25078.26596318  .00013452  00000-0  81901-3 0  9997
2 43188  97.5708 342.1574 0011160 135.5288 224.6839 15.10474786389949
S-Net C
1 43189U 18014K   25078.80188844  .00015512  00000-0  94328-3 0  9995
2 43189  97.5722 342.6873 0012890 128.4134 231.8254 15.10467649388574
Ten-Koh
1 43677U 18084G   25078.42884810  .00008265  00000-0  67104-3 0  9997
2 43677  98.0971 247.4070 0010466 178.8830 181.2417 14.99864633347921
PO-101
1 43678U 18084H   25078.83365657  .00008558  00000-0  73535-3 0  9996
2 43678  98.0992 251.8886 0008184 187.7245 172.3852 14.97673862348141
QO-100
1 43700U 18090A   25078.26047444  .00000151  00000-0  00000-0 0  9992
2 43700   0.0175 241.9602 0001583 154.5257 260.1590  1.00274346 23116
MinXSS-2
1 43758U 18099A   25078.72391521  .00041704  00000-0  18188-2 0  9990
2 43758  97.5110 144.6546 0013685  87.9435 272.3368 15.21955303344502
AO-95
1 43770U 18099N   25078.68646094  .00025485  00000-0  13653-2 0  9997
2 43770  97.5023 137.7499 0012698 134.0006 226.2274 15.14918272344140
RANGE-A
1 43773U 18099R   25078.68492235  .00015024  00000-0  98103-3 0  9998
2 43773  97.4593 129.4718 0013046 112.1969 248.0645 15.07860183343871
MOVE-II
1 43780U 18099Y   25078.75429697  .00156775  00000-0  28987-2 0  9997
2 43780  97.4745 149.9554 0002989 114.5228 245.6334 15.48468905345030
SNUSat 2
1 43782U 18099AA  25078.37783758  .00019084  00000-0  10910-2 0  9996
2 43782  97.4703 134.8444 0013742  81.6472 278.6316 15.12644492344067
SnugLite
1 43784U 18099AC  25078.60153796  .00026108  00000-0  13889-2 0  9990
2 43784  97.4521 134.4789 0005055  91.1208 269.0603 15.15219800344210
ITASat 1
1 43786U 18099AE  25078.10038398  .00017503  00000-0  10398-2 0  9998
2 43786  97.4676 134.3095 0016018 129.0272 231.2387 15.11249025343997
EAGLET 1
1 43790U 18099AJ  25078.70146302  .00014121  00000-0  92051-3 0  9994
2 43790  97.4871 135.0955 0013696 110.1362 250.1341 15.07931851343723
ESEO
1 43792U 18099AL  25078.54869299  .00006640  00000-0  50869-3 0  9993
2 43792  97.4593 129.2684 0012237  83.1069 277.1548 15.02106619343508
CSIM
1 43793U 18099AM  25078.79878590  .00162841  00000-0  29520-2 0  9990
2 43793  97.4931 152.0776 0004250  66.4566 293.7131 15.49009713344885
JO-97
1 43803U 18099AX  25078.60594890  .00030214  00000-0  14833-2 0  9999
2 43803  97.4765 138.5167 0009000  78.7370 281.4875 15.17990947344323
Suomi 100
1 43804U 18099AY  25078.69685639  .00026693  00000-0  13850-2 0  9995
2 43804  97.4837 138.1107 0014167  77.0810 283.2004 15.16023487344289
ISAT
1 43879U 18111D   25078.69938479  .00049017  00000-0  19377-2 0  9990
2 43879  97.6001 351.5155 0012031 118.2341 242.0113 15.25253082339177
UWE-4
1 43880U 18111E   25078.28990586  .00033129  00000-0  14373-2 0  9992
2 43880  97.5941 350.0987 0014774 131.1713 229.0800 15.22173833341095
Sparrow
1 43881U 18111F   25078.74125656  .00049314  00000-0  18935-2 0  9993
2 43881  97.6133 354.1422 0008732 147.4144 212.7635 15.26254802339287
Prox-1
1 44339U 19036A   25078.83987013  .00028588  00000-0  38851-2 0  9991
2 44339  23.9961 237.8276 0006477 215.6707 144.3357 14.77374477305996
SONATE
1 44400U 19038Q   25078.58787961  .00148001  00000-0  14762-2 0  9992
2 44400  97.7059  96.3396 0009595 172.2554 187.8854 15.65122342316643
Taurus 1
1 44530U 19059C   25078.84154765  .00023398  00000-0  44649-2 0  9996
2 44530  98.5955 214.5004 0009642 279.8831  80.1281 14.63922816291974
